Regional Weather Roundup
Issued by NWS

Home | Current Version | Previous Version | Graphics & Text | Print | Product List | Glossary On
Versions: 1 2 3 4 5 6 7 8 9 10 11 12 13 14 15 16 17 18 19 20 21 22 23 24 25 26 27 28 29 30 31 32 33 34 35 36 37 38 39 40 41 42 43 44 45 46 47 48 49 50
077
ASUS44 KLIX 192301
RWRLA
LOUISIANA WEATHER ROUNDUP
NATIONAL WEATHER SERVICE NEW ORLEANS LA
600 PM CDT TUE AUG 19 2014

NOTE: "FAIR" INDICATES FEW OR NO CLOUDS BELOW 12,000 FEET WITH NO
      SIGNIFICANT WEATHER AND/OR OBSTRUCTIONS TO VISIBILITY.
      SKY/WX - SKY CONDITION AND SIGNIFICANT WEATHER.
      TMP - AIR TEMPERATURE.    DP   - DEWPOINT TEMPERATURE.
      RH  - RELATIVE HUMIDITY.  PRES - PRESSURE.
      HX  - HEAT INDEX.         WCI  - WIND CHILL INDEX.

*  THESE STATIONS ARE NOT NWS OR FAA STATIONS AND ARE NOT UNDER
   NWS QUALITY CONTROL.

LAZ040-048-061>063-065-066-069-200000-
SOUTHEAST LOUISIANA

CITY           SKY/WX    TMP DP  RH WIND       PRES   REMARKS
N.O. AUDUBON     N/A     87  75  67 MISG        N/A  HX  96
N.O. INTL ARPT CLOUDY    85  74  69 SW5       29.96S
N.O. LAKEFRONT CLOUDY    85  73  67 S7        29.96S
N.O. DOWNTOWN* FAIR      90  70  51 CALM      29.96F HX  95
SLIDELL        PTSUNNY   87  74  64 S6        29.94F HX  95
BATON ROUGE    PTSUNNY   83  72  69 W15       29.95R
BOOTHVILLE     SUNNY     87  76  69 SW9       29.98R HX  97
BELLE CHASSE   CLOUDY    79  74  84 CALM      29.95F
BOGALUSA*      FAIR      88  73  61 SW8       29.95S HX  96
GALLIANO*      NOT AVBL
NEW ROADS*     FAIR      79  73  81 CALM      29.96R
GONZALES*      FAIR      85  77  76 S5        29.95R HX  95
HAMMOND*       NOT AVBL
HOUMA*         MOSUNNY   88  72  58 SW9       29.97R
PORT FOURCHON* PTCLDY    90  75  62 SW7       29.99R HX 100

$$

LAZ041-044-053-054-200000-
SOUTHWEST LOUISIANA

CITY           SKY/WX    TMP DP  RH WIND       PRES   REMARKS
LAKE CHARLES   CLOUDY    79  74  84 W5        29.94F
LAFAYETTE      CLOUDY    77  74  90 S5        29.95F
PATTERSON      CLOUDY   N/A N/A N/A MISG        N/A
SALT POINT       N/A     87  77  72 VRB5      29.95F HX  99
NEW IBERIA     CLOUDY    80  71  74 NW6       29.96F
CHENAULT AIRPK PTSUNNY   79  70  73 CALM      29.95F

$$

LAZ027-028-200000-
CENTRAL LOUISIANA

CITY           SKY/WX    TMP DP  RH WIND       PRES   REMARKS
FORT POLK      LGT RAIN  77  70  79 VRB3      29.95F
ALEXANDRIA INT CLOUDY    82  73  74 S3        29.94R
ALEXANDRIA     CLOUDY    80  72  76 SW3       29.95R

$$

LAZ001-002-200000-
NORTHWEST LOUISIANA

CITY           SKY/WX    TMP DP  RH WIND       PRES   REMARKS
SHREVEPORT     PTSUNNY   92  69  47 SW10      29.90R HX  97
BARKSDALE AFB  SUNNY     95  68  41 S9        29.90R HX  99
DTN SHREVEPORT MOSUNNY   93  67  42 S13       29.89R HX  96

$$

LAZ014-016-200000-
NORTHEAST LOUISIANA

CITY           SKY/WX    TMP DP  RH WIND       PRES   REMARKS
MONROE         MOSUNNY   92  72  51 SW7       29.90F HX  99
TALLULAH       MOSUNNY   89  74  60 S7        29.92R HX  98

$$




USA.gov is the U.S. government's official web portal to all federal, state and local government web resources and services.